Weather History for KEFK - February, 2013

Change the Weather History Date:

Wednesday, February 13, 2013

  Actual Average Record
Temperature  
Mean Temperature 28 °F -  
Max Temperature 30 °F 27 °F 54 °F (1984)
Min Temperature 25 °F 4 °F -27 °F (1967)
Degree Days  
Heating Degree Days 38    
Moisture  
Dew Point 23 °F    
Average Humidity 79    
Maximum Humidity 84    
Minimum Humidity 71    
Precipitation  
Precipitation 0.00 in - - ()
Sea Level Pressure  
Sea Level Pressure 29.76 in    
Wind  
Wind Speed 5 mph (WNW)    
Max Wind Speed 10 mph    
Max Gust Speed -    
Visibility 8 miles    
Events Rain , Snow    
Averages and records for this station are not official NWS values.
T = Trace of Precipitation, MM = Missing Value Source: NWS Daily Summary

Daily Weather History Graph

Daily Weather History Graph

Search for Another Location

Airport or City:

Trip Planner

Search our weather history database for the weather conditions in past years. The results will help you decide how hot, cold, wet, or windy it might be!

Date:

Astronomy

Feb. 13, 2013 Rise Set
Actual Time 6:52 AM EST 5:14 PM EST
Civil Twilight 6:22 AM EST 5:44 PM EST
Nautical Twilight 5:47 AM EST 6:19 PM EST
Astronomical Twilight 5:13 AM EST 6:53 PM EST
Moon 8:08 AM EST (2/13) 9:27 PM EST (2/13)
Length of Visible Light 11h 22m
Length of Day
10h 22m
Waxing Crescent, 13% of the Moon is Illuminated
Feb 13
Waxing Crescent
Feb 17
First Quarter
Feb 25
Full
Mar 4
Last Quarter
Mar 11
New

Hourly Weather History & Observations

Time (EST) Temp. Windchill Dew Point Humidity Pressure Visibility Wind Dir Wind Speed Gust Speed Precip Events Conditions
12:15 AM 29.8 °F 22.2 °F 23.5 °F 77% 29.77 in 5.0 mi SW 8.1 mph - N/A Snow Light Snow
12:35 AM 29.7 °F 20.7 °F 23.4 °F 77% 29.77 in 5.0 mi WSW 10.4 mph - N/A Snow Light Snow
12:55 AM 29.3 °F 20.2 °F 23.4 °F 78% 29.77 in 5.0 mi WSW 10.4 mph - N/A Snow Light Snow
1:15 AM 29.3 °F 21.5 °F 23.4 °F 78% 29.76 in 4.0 mi WSW 8.1 mph - N/A Snow Light Snow
1:35 AM 29.1 °F 21.3 °F 23.2 °F 78% 29.77 in 4.0 mi WSW 8.1 mph - N/A Snow Light Snow
1:55 AM 29.1 °F 20.0 °F 23.0 °F 78% 29.77 in 5.0 mi WSW 10.4 mph - N/A Snow Light Snow
2:15 AM 28.9 °F 21.1 °F 23.2 °F 79% 29.77 in 4.0 mi WSW 8.1 mph - N/A Snow Light Snow
2:35 AM 28.9 °F 21.9 °F 23.4 °F 80% 29.78 in 4.0 mi WSW 6.9 mph - N/A Snow Light Snow
2:55 AM 28.8 °F 21.7 °F 23.5 °F 81% 29.77 in 5.0 mi WSW 6.9 mph - N/A Snow Light Snow
3:15 AM 28.8 °F 21.7 °F 23.5 °F 81% 29.77 in 5.0 mi West 6.9 mph - N/A Snow Light Snow
3:35 AM 28.4 °F 21.2 °F 23.5 °F 82% 29.77 in 7.0 mi West 6.9 mph - N/A Snow Light Snow
3:55 AM 28.8 °F 22.6 °F 23.4 °F 80% 29.77 in 10.0 mi West 5.8 mph - N/A Snow Light Snow
4:15 AM 28.6 °F 23.5 °F 23.0 °F 80% 29.77 in 7.0 mi West 4.6 mph - N/A Snow Light Snow
4:35 AM 28.4 °F 24.6 °F 23.0 °F 80% 29.78 in 7.0 mi West 3.5 mph - N/A Snow Light Snow
4:55 AM 28.4 °F 24.6 °F 23.0 °F 80% 29.78 in 5.0 mi West 3.5 mph - N/A Snow Light Snow
5:15 AM 28.2 °F 24.4 °F 23.2 °F 81% 29.78 in 5.0 mi West 3.5 mph - N/A Snow Light Snow
5:35 AM 28.0 °F 24.2 °F 23.4 °F 83% 29.78 in 5.0 mi West 3.5 mph - N/A Snow Light Snow
5:55 AM 28.0 °F 24.2 °F 23.4 °F 83% 29.78 in 4.0 mi West 3.5 mph - N/A Snow Light Snow
6:15 AM 28.2 °F - 23.4 °F 82% 29.78 in 5.0 mi Calm Calm - N/A Snow Light Snow
6:35 AM 27.9 °F - 23.4 °F 83% 29.78 in 7.0 mi Calm Calm - N/A Snow Light Snow
6:55 AM 28.2 °F 24.4 °F 23.0 °F 81% 29.78 in 10.0 mi WSW 3.5 mph - N/A   Overcast
7:15 AM 28.4 °F 23.3 °F 23.0 °F 80% 29.79 in 10.0 mi WSW 4.6 mph - N/A Snow Light Snow
7:35 AM 28.2 °F 24.4 °F 22.8 °F 80% 29.79 in 7.0 mi West 3.5 mph - N/A Snow Light Snow
7:55 AM 28.2 °F 24.4 °F 23.0 °F 81% 29.79 in 10.0 mi West 3.5 mph - N/A Snow Light Snow
8:15 AM 28.4 °F - 22.8 °F 80% 29.79 in 7.0 mi Calm Calm - N/A Snow Light Snow
8:35 AM 28.4 °F - 23.0 °F 80% 29.79 in 5.0 mi Calm Calm - N/A Snow Light Snow
8:55 AM 28.4 °F - 23.0 °F 80% 29.79 in 4.0 mi Calm Calm - N/A Snow Light Snow
9:15 AM 28.8 °F 25.0 °F 23.0 °F 79% 29.79 in 5.0 mi West 3.5 mph - N/A Snow Light Snow
9:35 AM 28.8 °F - 23.5 °F 81% 29.80 in 4.0 mi Calm Calm - N/A Snow Light Snow
9:55 AM 28.9 °F - 23.7 °F 81% 29.80 in 4.0 mi Calm Calm - N/A Snow Light Snow
10:15 AM 29.1 °F - 23.7 °F 80% 29.80 in 3.0 mi Calm Calm - N/A Snow Light Snow
10:35 AM 29.3 °F - 23.5 °F 79% 29.79 in 3.0 mi Calm Calm - N/A Snow Light Snow
10:55 AM 29.7 °F 22.8 °F 23.4 °F 77% 29.79 in 7.0 mi West 6.9 mph - N/A Snow Light Snow
11:15 AM 30.0 °F 24.1 °F 23.0 °F 75% 29.78 in 7.0 mi West 5.8 mph - N/A Snow Light Snow
11:35 AM 29.3 °F 23.2 °F 23.7 °F 80% 29.78 in 7.0 mi NNW 5.8 mph - N/A Snow Light Snow
11:55 AM 29.3 °F 24.3 °F 23.7 °F 80% 29.77 in 7.0 mi NNW 4.6 mph - N/A Snow Light Snow
12:15 PM 29.1 °F 22.1 °F 23.4 °F 79% 29.77 in 7.0 mi NNW 6.9 mph - N/A Snow Light Snow
12:35 PM 29.3 °F 24.3 °F 23.0 °F 77% 29.77 in 4.0 mi NNW 4.6 mph - N/A Snow Light Snow
12:55 PM 29.3 °F - 23.2 °F 78% 29.77 in 7.0 mi Calm Calm - N/A Snow Light Snow
1:15 PM 30.6 °F 24.7 °F 23.5 °F 75% 29.75 in 7.0 mi NNW 5.8 mph - N/A Snow Light Snow
1:55 PM 30.2 °F 26.7 °F 23.0 °F 75% 29.75 in 7.0 mi North 3.5 mph - N/A Snow Light Snow
2:15 PM 30.2 °F - 23.0 °F 75% 29.75 in 7.0 mi Calm Calm - N/A Snow Light Snow
2:35 PM 30.2 °F 26.7 °F 23.0 °F 75% 29.75 in 10.0 mi NNE 3.5 mph - N/A Rain Light Freezing Rain
2:55 PM 30.4 °F 25.6 °F 23.0 °F 74% 29.74 in 10.0 mi NNE 4.6 mph - N/A   Overcast
3:15 PM 30.2 °F 26.7 °F 23.2 °F 75% 29.74 in 10.0 mi North 3.5 mph - N/A   Overcast
3:35 PM 30.2 °F 26.7 °F 22.8 °F 74% 29.74 in 10.0 mi ENE 3.5 mph - N/A   Overcast
3:55 PM 30.6 °F - 22.6 °F 72% 29.74 in 10.0 mi Calm Calm - N/A   Overcast
4:15 PM 30.4 °F - 22.1 °F 71% 29.73 in 10.0 mi Calm Calm - N/A   Overcast
4:35 PM 28.9 °F - 22.5 °F 77% 29.73 in 10.0 mi Calm Calm - N/A   Overcast
4:55 PM 29.3 °F - 22.3 °F 75% 29.73 in 10.0 mi Calm Calm - N/A   Overcast
5:15 PM 29.1 °F - 21.7 °F 74% 29.73 in 10.0 mi Calm Calm - N/A   Overcast
5:35 PM 29.1 °F - 22.3 °F 76% 29.73 in 10.0 mi Calm Calm - N/A   Overcast
5:55 PM 27.9 °F - 22.1 °F 79% 29.73 in 10.0 mi Calm Calm - N/A   Overcast
6:15 PM 28.6 °F - 22.1 °F 77% 29.74 in 10.0 mi Calm Calm - N/A   Overcast
6:35 PM 29.3 °F - 22.1 °F 75% 29.74 in 10.0 mi Calm Calm - N/A   Overcast
6:55 PM 29.3 °F - 21.7 °F 73% 29.74 in 10.0 mi Calm Calm - N/A   Overcast
7:15 PM 28.6 °F - 21.7 °F 76% 29.74 in 10.0 mi Calm Calm - N/A Snow Light Snow
7:35 PM 26.6 °F - 22.1 °F 83% 29.74 in 10.0 mi Calm Calm - N/A   Overcast
7:55 PM 27.0 °F - 21.7 °F 81% 29.73 in 10.0 mi Calm Calm - N/A   Overcast
8:15 PM 27.5 °F 23.6 °F 22.3 °F 81% 29.74 in 10.0 mi North 3.5 mph - N/A   Overcast
8:35 PM 27.1 °F - 21.7 °F 80% 29.73 in 10.0 mi Calm Calm - N/A   Overcast
8:55 PM 27.7 °F - 22.3 °F 80% 29.74 in 10.0 mi Calm Calm - N/A   Overcast
9:15 PM 25.9 °F 21.7 °F 21.2 °F 82% 29.74 in 10.0 mi North 3.5 mph - N/A   Overcast
9:35 PM 27.1 °F 23.2 °F 22.1 °F 81% 29.74 in 10.0 mi North 3.5 mph - N/A   Overcast
9:55 PM 27.1 °F - 22.1 °F 81% 29.74 in 10.0 mi Calm Calm - N/A   Overcast
10:15 PM 26.2 °F - 21.6 °F 82% 29.75 in 10.0 mi Calm Calm - N/A   Overcast
10:35 PM 26.6 °F - 22.3 °F 84% 29.74 in 10.0 mi Calm Calm - N/A   Overcast
10:55 PM 26.6 °F - 22.5 °F 84% 29.74 in 10.0 mi Calm Calm - N/A   Overcast
11:15 PM 27.5 °F - 22.6 °F 82% 29.74 in 10.0 mi Calm Calm - N/A   Overcast
11:35 PM 27.0 °F - 22.5 °F 83% 29.73 in 10.0 mi Calm Calm - N/A   Overcast
11:55 PM 27.1 °F - 23.0 °F 84% 29.74 in 10.0 mi Calm Calm - N/A   Overcast